Theta_e
337 340 344 345 345 345 345 345 345 345 345 343 342 342 341 340 339 342 343 343 344 345 345 345 345 345 344 342 341 339 337 337 336 335 333 332 331 331 330 328 330 327 328
340 340 342 344 346 346 345 345 345 345 343 343 342 340 338 338 339 338 341 342 344 344 345 345 345 344 341 339 338 336 336 334 335 335 335 333 331 331 331 330 329 328 327
339 340 340 342 346 346 345 345 344 344 342 340 339 338 338 339 336 337 338 341 342 344 345 344 344 341 339 337 336 334 334 332 331 330 329 327 327 331 330 328 329 329 326
340 339 339 340 345 345 344 342 342 341 340 338 339 339 338 338 337 338 336 340 341 342 344 344 342 340 337 335 334 333 332 330 328 326 325 325 324 329 329 327 327 327 327
338 338 338 340 343 343 339 336 340 339 338 336 339 340 335 339 339 339 340 340 339 342 343 342 341 338 336 334 332 332 330 328 326 325 324 324 326 326 328 327 326 325 324
336 337 338 340 341 340 337 335 338 338 337 335 337 338 337 338 340 341 340 340 340 340 341 341 339 337 335 333 332 330 329 327 325 324 325 325 324 327 326 325 324 323 326
336 337 337 339 338 339 336 337 339 340 339 338 339 338 338 339 339 340 340 340 339 339 340 340 338 336 334 332 331 329 327 325 323 323 323 324 325 326 326 325 324 324 323
335 336 337 333 335 335 337 338 338 340 340 339 339 339 339 339 339 340 339 339 340 339 339 340 338 335 334 332 330 328 326 324 322 323 323 323 325 325 325 324 323 323 322
335 335 334 333 331 330 333 334 335 339 339 340 341 340 338 338 339 339 339 339 338 337 337 338 338 337 333 331 329 327 325 322 322 322 321 322 325 325 325 323 322 322 322
333 332 331 331 331 332 331 328 331 334 336 338 336 334 332 333 334 334 333 336 338 337 336 338 337 336 333 330 328 326 323 321 321 322 322 321 324 325 323 322 321 321 321
332 331 331 329 330 329 330 327 328 330 331 330 330 327 328 334 333 331 329 331 335 334 337 336 336 335 331 329 326 324 322 322 321 321 322 323 322 324 321 321 320 320 320
329 330 330 330 330 329 329 327 331 331 333 332 332 332 332 332 332 330 326 327 330 331 335 336 335 330 326 326 325 324 323 321 322 321 322 323 322 321 321 320 319 319 319
331 331 331 330 331 329 329 329 329 329 330 330 330 330 331 329 330 330 330 329 328 324 331 330 329 328 326 326 325 324 323 322 321 321 321 322 323 321 321 319 318 317 318
330 331 332 331 330 329 328 328 328 327 327 327 328 328 329 328 328 327 327 326 324 324 324 326 326 325 324 324 324 323 323 322 321 321 321 320 323 322 320 320 318 317 316
330 331 331 332 330 329 327 327 327 326 326 327 326 326 328 327 326 325 325 324 322 320 321 322 323 323 323 322 322 322 321 321 321 321 322 316 321 323 321 320 319 318 317
329 331 331 332 331 329 327 327 326 327 326 326 325 326 327 327 324 324 323 322 320 319 319 319 320 320 320 320 319 319 319 318 317 318 319 319 320 323 322 320 320 319 318
327 329 331 330 331 329 328 327 327 327 326 325 325 325 326 327 324 323 322 321 320 318 318 316 315 315 316 316 317 317 316 316 316 315 316 316 317 319 323 322 322 321 320
326 326 329 331 331 330 329 328 328 327 325 325 325 325 325 325 325 323 321 320 320 318 317 315 314 313 313 314 314 314 314 313 313 312 313 314 315 314 317 323 323 322 321
322 325 326 330 329 329 329 329 328 328 326 325 324 324 324 324 323 323 322 320 320 319 317 315 312 312 311 311 311 310 310 310 310 310 311 311 312 313 314 313 317 319 321
305 311 321 328 330 330 329 328 328 327 326 325 323 323 323 324 323 323 322 320 320 319 316 315 313 311 311 311 308 307 307 307 306 307 308 308 310 310 310 311 313 313 314
301 302 305 309 325 329 328 326 325 324 325 324 323 322 323 324 323 323 322 320 320 319 318 316 314 309 306 306 305 304 305 305 305 305 305 305 306 307 309 309 309 310 310
297 299 301 302 307 316 328 328 327 326 327 325 325 323 323 322 323 322 322 321 320 319 318 317 313 308 307 305 304 301 303 305 302 303 304 303 303 304 304 306 307 307 308
295 297 298 299 302 307 315 328 327 327 325 324 324 323 322 323 322 323 322 321 320 320 318 318 314 310 307 304 304 306 300 299 298 299 300 301 301 300 302 302 303 304 305
293 295 297 297 299 303 307 320 323 323 321 323 324 324 323 322 322 322 322 321 321 321 320 318 316 314 313 306 304 303 303 301 300 300 299 298 298 298 300 301 300 300 302
292 292 295 296 297 300 303 307 315 323 324 323 324 323 323 321 321 322 322 322 320 320 320 320 317 314 313 312 308 303 305 300 299 299 301 302 297 297 299 300 300 300 300
291 291 292 294 296 298 301 303 306 313 322 321 322 322 321 321 321 321 322 322 322 321 320 319 318 314 314 313 310 308 306 303 302 300 299 302 304 305 301 300 300 299 299
Wind_Speed
13 14 19 19 19 19 17 17 17 16 16 17 16 15 15 15 14 11 10 8 14 14 14 15 16 18 23 24 23 22 21 21 20 20 19 21 19 19 19 18 15 14 18
17 16 18 18 18 19 17 16 16 16 17 17 17 15 14 14 14 12 9 9 14 13 15 19 22 24 24 22 23 22 21 20 19 17 16 17 17 18 19 17 17 15 18
19 16 17 18 17 18 18 16 14 13 14 16 16 14 13 13 13 12 11 8 13 13 18 22 24 23 22 21 21 21 20 19 18 16 14 11 13 18 17 17 17 17 15
17 14 12 14 16 19 18 16 15 14 15 14 14 14 13 13 13 13 12 9 11 13 18 22 22 23 21 21 21 20 19 19 17 14 10 10 12 17 16 15 15 16 17
15 14 12 15 16 15 16 16 14 12 13 13 11 12 12 11 12 13 10 13 10 12 17 20 21 22 20 20 20 20 19 18 16 13 12 11 10 14 16 15 15 15 15
14 15 14 16 17 16 17 16 15 13 12 13 12 11 11 10 13 12 11 12 12 11 14 19 21 20 20 20 20 20 18 16 13 11 9 10 9 15 15 14 14 13 13
13 13 15 16 17 16 19 15 14 13 12 10 11 10 9 10 14 12 10 10 13 12 13 18 21 19 20 20 19 19 17 14 11 9 8 8 10 15 14 13 13 12 14
14 13 13 15 13 16 14 14 15 14 14 11 10 9 10 10 15 13 12 12 14 12 13 17 21 19 19 19 19 18 15 11 10 10 9 8 11 13 13 11 11 12 12
13 12 11 12 12 12 11 10 9 15 14 11 9 11 9 10 12 13 11 12 13 11 10 13 18 19 19 18 19 15 12 9 11 8 8 6 10 12 12 11 10 10 11
11 10 11 10 10 9 7 9 9 10 11 12 11 11 10 9 9 11 8 9 12 10 8 11 17 18 18 18 16 13 11 8 8 8 6 6 8 10 10 10 9 9 10
8 9 11 10 10 8 6 6 9 10 8 11 11 10 9 8 9 6 7 9 9 10 9 12 16 17 16 13 15 13 10 5 6 5 5 8 7 10 8 8 7 8 8
11 8 11 11 7 8 5 6 7 7 6 7 8 8 7 9 7 6 7 9 10 9 11 11 15 14 11 8 7 9 5 6 5 6 5 8 7 7 7 7 6 6 6
13 8 8 10 8 8 7 4 4 4 4 5 8 7 7 6 7 6 5 5 6 7 6 8 8 6 9 8 7 6 4 4 3 4 7 10 5 6 6 5 5 4 4
14 11 9 9 9 9 5 4 6 6 5 5 6 8 7 5 7 6 5 5 5 3 6 6 5 7 7 6 5 6 7 5 3 3 4 11 6 6 5 6 4 4 3
10 11 11 9 9 7 8 5 5 7 6 6 6 7 7 7 6 5 6 5 4 4 5 5 6 5 6 5 4 5 5 5 3 2 3 5 10 6 8 7 5 5 4
7 8 9 11 11 9 8 9 6 6 7 7 6 7 9 8 6 6 7 6 5 4 5 5 5 5 4 4 5 5 4 3 2 2 2 2 4 7 7 7 7 7 6
4 5 10 10 9 10 11 9 7 6 7 7 7 9 9 9 8 8 7 6 6 6 6 5 5 4 3 3 4 4 3 4 3 4 3 2 3 6 8 10 11 10 9
5 6 4 7 11 11 10 9 7 7 6 7 7 8 10 9 11 8 7 7 7 6 5 5 5 4 3 3 3 3 3 3 4 4 4 4 4 3 5 10 10 12 13
8 6 11 8 10 13 12 9 10 10 8 6 6 7 11 11 11 9 7 7 8 7 6 6 3 4 4 3 3 3 3 4 5 4 7 6 6 6 5 7 9 8 9
16 15 10 7 13 12 9 9 7 8 8 6 6 7 10 9 10 8 7 7 8 7 7 6 6 5 3 4 3 3 3 5 5 6 8 6 7 8 7 7 6 5 7
16 16 15 13 8 8 6 4 8 11 8 8 7 10 11 10 10 10 7 8 8 8 9 11 7 6 3 3 2 2 4 9 9 8 8 7 8 8 8 7 5 5 5
13 14 14 14 13 10 7 6 5 2 5 7 7 9 11 12 12 11 10 9 10 8 9 9 7 3 2 5 3 1 3 3 4 8 7 8 10 7 8 9 9 8 7
14 13 14 14 13 11 14 4 5 4 3 5 6 7 9 10 11 13 13 10 11 10 9 11 10 10 6 5 6 3 2 5 3 1 4 7 9 7 8 8 9 9 9
14 13 12 13 13 11 12 7 5 6 5 4 7 7 8 12 12 12 12 11 11 10 11 11 11 9 7 7 3 5 3 3 3 4 2 2 5 8 11 8 9 10 11
13 13 12 12 12 13 12 9 7 9 6 5 6 10 12 11 12 12 11 11 10 9 11 12 12 13 9 6 6 4 8 4 2 4 8 3 3 7 8 9 10 10 12
13 13 13 13 13 12 11 11 9 11 7 5 7 7 6 6 9 13 14 12 11 11 11 11 12 13 11 11 7 8 7 6 7 8 9 10 8 5 7 8 9 10 10
Wind_Direction
159 153 147 149 145 141 138 129 129 129 130 130 126 124 118 114 115 105 104 98 92 92 95 110 118 113 101 95 95 92 90 91 91 90 91 92 91 89 84 80 75 80 75
149 150 150 151 146 140 136 133 131 133 133 129 128 128 125 117 110 114 110 105 96 100 102 104 106 101 96 98 97 96 94 91 84 81 84 88 90 89 88 86 74 75 78
149 149 150 151 145 139 135 135 135 134 130 132 137 134 136 127 126 124 110 96 103 105 109 112 105 102 102 101 102 101 96 92 83 76 73 86 88 86 81 86 85 77 76
144 142 137 152 142 139 144 137 124 133 138 143 142 143 132 128 130 131 129 114 100 113 118 115 110 106 108 106 105 103 99 91 82 75 82 81 88 88 90 79 83 71 71
138 132 142 142 145 145 136 144 139 141 146 147 148 137 144 138 145 141 142 131 121 124 127 119 116 114 112 112 110 107 102 95 87 87 84 81 86 84 79 74 72 71 73
135 137 143 142 139 138 145 149 145 147 144 151 152 141 141 137 142 133 136 135 123 122 130 129 121 122 120 118 115 112 108 103 95 93 95 98 89 86 89 87 82 83 83
135 138 145 141 145 149 151 144 145 152 152 150 158 146 160 138 142 132 124 113 126 119 125 134 128 128 125 121 120 116 112 106 103 99 93 97 97 92 95 95 90 94 81
138 141 145 140 154 146 158 155 156 156 152 159 157 143 131 144 145 132 119 114 121 129 131 141 135 133 130 126 123 120 117 112 111 104 98 100 98 98 96 86 85 81 79
137 141 144 148 157 152 154 163 161 162 153 157 140 125 110 129 136 123 122 122 117 119 114 135 138 133 132 129 125 120 113 116 119 113 111 103 107 103 95 94 92 87 92
138 141 144 154 155 158 160 154 137 133 150 134 127 114 106 118 113 108 116 124 114 104 113 139 143 135 137 136 129 122 116 108 123 124 114 107 101 104 98 98 97 95 92
138 143 147 156 161 155 167 150 129 129 121 114 111 112 112 124 117 102 107 126 112 120 112 133 142 137 135 135 134 132 130 133 134 129 120 116 117 103 104 97 98 102 93
149 154 155 155 154 154 162 145 141 135 131 132 132 133 129 134 127 116 111 101 102 108 106 118 123 119 130 143 140 134 141 149 148 145 135 131 126 119 113 106 113 113 107
159 156 159 158 156 160 160 146 147 137 142 138 139 140 137 133 133 127 126 121 120 100 115 124 127 140 148 152 160 149 140 159 155 166 157 126 131 132 130 130 129 127 115
162 157 158 165 166 159 152 160 157 150 156 153 156 147 145 150 151 141 141 141 133 136 135 136 139 141 147 152 163 162 166 173 174 173 177 141 157 169 170 157 165 158 154
160 159 164 165 174 170 164 164 165 164 170 166 164 161 160 163 171 139 145 150 144 139 143 140 142 150 156 161 176 183 180 177 199 198 181 191 158 207 198 184 196 186 193
159 160 163 180 178 173 180 171 177 174 174 169 172 174 171 172 170 161 159 161 157 160 146 149 155 156 163 175 191 199 199 188 185 240 231 245 216 191 215 233 209 221 209
178 183 178 178 186 182 187 188 174 186 175 180 179 180 178 173 176 174 172 170 170 163 150 145 144 144 156 172 199 199 201 209 218 228 244 263 289 248 227 243 222 224 221
204 201 216 197 188 192 195 188 189 187 187 194 183 178 181 180 186 185 177 180 170 165 163 163 160 155 167 191 195 212 215 218 227 230 235 241 240 257 271 246 256 245 225
304 243 208 215 204 200 199 191 191 190 195 189 191 187 184 188 193 189 186 180 171 174 177 170 166 169 183 193 207 214 242 244 238 238 240 240 240 240 244 260 267 237 259
11 13 355 242 220 206 211 190 195 196 195 179 189 195 188 194 190 190 189 179 178 180 181 182 178 184 185 191 187 224 246 255 248 240 241 237 237 235 237 243 252 250 247
13 7 2 357 317 209 199 197 212 197 193 186 185 196 194 194 189 188 193 188 187 190 193 189 182 183 187 166 107 265 255 244 242 238 235 238 240 238 241 244 245 250 255
4 359 355 351 346 333 206 205 189 219 193 196 190 191 207 198 191 190 193 195 192 191 196 191 186 160 157 182 134 110 294 287 251 242 238 236 239 235 240 238 241 243 245
356 355 349 344 341 341 339 207 199 163 175 182 189 190 199 205 201 200 201 196 192 192 195 194 194 183 184 191 188 159 199 245 311 209 237 241 242 240 248 244 240 239 239
348 341 341 341 340 341 344 318 204 191 193 195 195 186 190 202 204 206 207 206 204 197 200 198 197 206 187 187 207 243 222 155 223 301 225 239 232 237 239 239 240 234 232
346 340 337 334 339 340 339 341 328 214 218 187 186 195 196 192 197 199 213 214 210 212 215 204 196 202 208 196 194 158 221 216 216 242 284 259 239 225 228 228 232 232 230
345 343 338 336 337 337 339 337 336 323 217 195 196 199 196 193 204 207 203 209 213 213 217 214 212 206 206 215 203 200 187 181 201 205 233 256 250 240 222 225 225 227 223